DLH880 EDDN-EDDC

Flight info

Callsign DLH880
Flight time N/A
Altitude 19000
Route ERETO1G/28 ERETO Z715 ABKIS Q240 DRN
Aircraft A21N/M-SDE2E3FGHIRWXY/LB1

Departure

Time 2026-05-07 14:46
Airport Nuremberg Airport (EDDN)

Arrival

Time N/A
Airport Dresden Airport (EDDC)
Time Latitude Longitude Altitude Speed Heading
2026-05-07 14:13 49.49525 11.07726 1027 ft 0 kts 188°
2026-05-07 14:32 49.49526 11.07726 1030 ft 2 kts 188°
2026-05-07 14:32 49.49543 11.07730 1030 ft 2 kts 188°
2026-05-07 14:33 49.49560 11.07733 1032 ft 2 kts 188°
2026-05-07 14:33 49.49577 11.07728 1032 ft 3 kts 130°
2026-05-07 14:33 49.49582 11.07713 1032 ft 0 kts 96°
2026-05-07 14:35 49.49582 11.07724 1032 ft 2 kts 94°
2026-05-07 14:36 49.49581 11.07770 1033 ft 6 kts 90°
2026-05-07 14:36 49.49577 11.07849 1033 ft 9 kts 96°
2026-05-07 14:36 49.49569 11.07967 1033 ft 13 kts 96°
2026-05-07 14:36 49.49562 11.08046 1033 ft 0 kts 98°
2026-05-07 14:37 49.49555 11.08115 1033 ft 9 kts 97°
2026-05-07 14:37 49.49544 11.08236 1034 ft 13 kts 101°
2026-05-07 14:38 49.49550 11.08325 1035 ft 5 kts 39°
2026-05-07 14:38 49.49591 11.08358 1035 ft 9 kts 31°
2026-05-07 14:38 49.49612 11.08453 1035 ft 11 kts 91°
2026-05-07 14:38 49.49602 11.08575 1036 ft 13 kts 99°
2026-05-07 14:39 49.49586 11.08726 1038 ft 16 kts 99°
2026-05-07 14:39 49.49566 11.08905 1040 ft 18 kts 100°
2026-05-07 14:39 49.49559 11.08968 1040 ft 12 kts 97°
2026-05-07 14:39 49.49541 11.09184 1042 ft 19 kts 102°
2026-05-07 14:40 49.49546 11.09384 1045 ft 20 kts 56°
2026-05-07 14:40 49.49592 11.09479 1045 ft 11 kts 51°
2026-05-07 14:40 49.49596 11.09486 1045 ft 0 kts 51°
2026-05-07 14:45 49.49602 11.09497 1046 ft 7 kts 48°
2026-05-07 14:45 49.49673 11.09563 1048 ft 10 kts 350°
2026-05-07 14:45 49.49704 11.09476 1046 ft 8 kts 275°
2026-05-07 14:45 49.49707 11.09440 1046 ft 0 kts 279°
2026-05-07 14:46 49.49715 11.09367 1045 ft 31 kts 279°
2026-05-07 14:46 49.49795 11.08544 1032 ft 126 kts 278°
2026-05-07 14:46 49.49939 11.06880 1370 ft 174 kts 276°
2026-05-07 14:46 49.50084 11.04930 2048 ft 197 kts 278°
2026-05-07 14:47 49.50311 11.02647 2502 ft 240 kts 280°
2026-05-07 14:47 49.50603 10.99937 2519 ft 254 kts 280°
2026-05-07 14:47 49.50869 10.97367 2650 ft 235 kts 279°
2026-05-07 14:47 49.51137 10.94828 3263 ft 244 kts 282°
2026-05-07 14:48 49.51927 10.92529 4477 ft 250 kts 315°
2026-05-07 14:48 49.53482 10.91338 5758 ft 257 kts 348°